Simultaneous Nadir Overpasses (SNOs) Predictions

Prediction of SNOs between AQUA and NPP Satellite Orbit:

Table of predicted SNOs for the next 14.0 days since TLE Epoch: 11/30/2024
Index Date (AQUA) Time (AQUA) Lat,Lon (AQUA) SZA (AQUA ) Date (NPP) Time (NPP) Lat,Lon (NPP) SZA (NPP ) Distance(km) Time Diff (sec)
1 12/02/2024 04:50:19 -81.29,-144.16 71.35 12/02/2024 04:49:36 -81.29,-144.34 71.30 2.99 43
2 12/02/2024 05:39:38 81.30, 23.62 108.65 12/02/2024 05:40:20 81.30, 23.44 108.65 3.02 42
3 12/04/2024 16:01:59 -81.30, 48.18 71.01 12/04/2024 16:02:05 -81.30, 48.08 71.00 1.87 6
4 12/07/2024 02:24:18 81.30, 72.53 109.32 12/07/2024 02:23:51 81.30, 72.65 109.32 2.05 27
5 12/07/2024 03:13:38 -81.30,-119.71 70.69 12/07/2024 03:14:35 -81.30,-119.62 70.74 1.57 57
6 12/09/2024 12:46:35 -81.30, 97.08 70.42 12/09/2024 12:45:37 -81.30, 97.15 70.40 1.28 58
7 12/09/2024 13:35:54 81.30, -95.20 109.58 12/09/2024 13:36:21 81.30, -95.19 109.56 0.38 27



Historial Predications of SNOs between AQUA and NPP
